| time (UTC) | temp F | wind direction | speed knots | gust knots | rain 1hr in | rain 24hr in | rain mn in | humidity % | barometer mb |
| 20260503184541 | 61 | 188 | 12.2 | 24.3 | 0.00 | 0.00 | 0.00 | 51 | 1007.5 |
| 20260503183032 | 62 | 192 | 9.6 | 28.7 | 0.00 | 0.00 | 0.00 | 51 | 1007.7 |
| 20260503181538 | 61 | 194 | 11.3 | 26.1 | 0.00 | 0.00 | 0.00 | 51 | 1008.0 |
| 20260503180047 | 61 | 159 | 9.6 | 25.2 | 0.00 | 0.00 | 0.00 | 57 | 1008.6 |
| 20260503174543 | 59 | 167 | 10.4 | 26.1 | 0.00 | 0.00 | 0.00 | 58 | 1009.0 |
| 20260503173041 | 55 | 173 | 11.3 | 25.2 | 0.00 | 0.00 | 0.00 | 62 | 1009.3 |
| 20260503171534 | 55 | 166 | 11.3 | 23.5 | 0.00 | 0.00 | 0.00 | 62 | 1009.9 |
| 20260503081539 | 43 | 0 | 0.9 | 7.8 | 0.00 | 0.00 | 0.00 | 65 | 1012.7 |
| 20260503071536 | 40 | 0 | 0.9 | 4.3 | 0.00 | 0.00 | 0.00 | 70 | 1013.1 |
| 20260503054531 | 37 | 192 | 1.7 | 6.1 | 0.00 | 0.00 | 0.00 | 79 | 1013.8 |
| 20260503053032 | 37 | 0 | 0.9 | 6.1 | 0.00 | 0.00 | 0.00 | 80 | 1013.9 |
| 20260503051537 | 37 | 198 | 0.0 | 3.5 | 0.00 | 0.00 | 0.00 | 81 | 1014.0 |
| 20260503050033 | 37 | 0 | 0.0 | 2.6 | 0.00 | 0.00 | 0.00 | 81 | 1014.2 |
| 20260503044533 | 37 | 194 | 0.0 | 4.3 | 0.00 | 0.00 | 0.00 | 81 | 1014.1 |
| 20260503043032 | 37 | 152 | 0.0 | 1.7 | 0.00 | 0.00 | 0.00 | 82 | 1014.2 |
| 20260503041534 | 37 | 207 | 0.9 | 4.3 | 0.00 | 0.00 | 0.00 | 83 | 1014.2 |
| 20260503040030 | 37 | 167 | 0.9 | 4.3 | 0.00 | 0.00 | 0.00 | 84 | 1014.4 |
| 20260503034533 | 37 | 200 | 0.9 | 4.3 | 0.00 | 0.00 | 0.00 | 85 | 1014.5 |
| 20260503033037 | 37 | 178 | 0.9 | 6.1 | 0.00 | 0.00 | 0.00 | 84 | 1014.6 |
| 20260503031535 | 38 | 175 | 0.0 | 3.5 | 0.00 | 0.00 | 0.00 | 83 | 1014.7 |
| 20260503030048 | 38 | 0 | 0.0 | 1.7 | 0.00 | 0.00 | 0.00 | 82 | 1014.8 |
| 20260503024535 | 39 | 0 | 0.0 | 0.0 | 0.00 | 0.00 | 0.00 | 81 | 1014.9 |
| 20260503023033 | 39 | 0 | 0.0 | 0.0 | 0.00 | 0.00 | 0.00 | 80 | 1014.8 |
| 20260503021534 | 40 | 0 | 0.0 | 0.0 | 0.00 | 0.00 | 0.00 | 79 | 1014.8 |
| 20260503020032 | 41 | 0 | 0.0 | 0.9 | 0.00 | 0.00 | 0.00 | 78 | 1014.7 |
| 20260503014533 | 42 | 0 | 0.0 | 1.7 | 0.00 | 0.00 | 0.00 | 77 | 1014.7 |
| 20260503013030 | 43 | 0 | 0.0 | 0.0 | 0.00 | 0.00 | 0.00 | 76 | 1014.5 |
| 20260503011530 | 44 | 0 | 0.0 | 5.2 | 0.00 | 0.00 | 0.00 | 74 | 1014.6 |
| 20260503010032 | 44 | 148 | 0.0 | 6.1 | 0.00 | 0.00 | 0.00 | 73 | 1014.6 |
| 20260503004533 | 45 | 0 | 1.7 | 7.0 | 0.00 | 0.00 | 0.00 | 72 | 1014.7 |
| 20260503003031 | 46 | 159 | 1.7 | 7.0 | 0.00 | 0.00 | 0.00 | 70 | 1014.8 |
| 20260503001532 | 46 | 140 | 2.6 | 8.7 | 0.00 | 0.00 | 0.00 | 68 | 1015.0 |
| 20260503000034 | 47 | 159 | 2.6 | 10.4 | 0.00 | 0.00 | 0.00 | 66 | 1015.0 |
| 20260502234535 | 48 | 170 | 3.5 | 10.4 | 0.00 | 0.00 | 0.00 | 64 | 1015.1 |
| 20260502233032 | 48 | 170 | 7.0 | 13.0 | 0.00 | 0.00 | 0.00 | 62 | 1015.4 |
| 20260502231531 | 48 | 182 | 4.3 | 12.2 | 0.00 | 0.00 | 0.00 | 62 | 1015.4 |
| 20260502230032 | 48 | 165 | 4.3 | 13.0 | 0.00 | 0.00 | 0.00 | 63 | 1015.6 |
| 20260502224532 | 48 | 147 | 6.1 | 13.0 | 0.00 | 0.00 | 0.00 | 61 | 1015.9 |
| 20260502223034 | 49 | 178 | 2.6 | 13.0 | 0.00 | 0.00 | 0.00 | 60 | 1015.8 |
| 20260502221531 | 48 | 130 | 6.1 | 14.8 | 0.00 | 0.00 | 0.00 | 59 | 1015.9 |
| 20260502220032 | 48 | 184 | 9.6 | 15.6 | 0.00 | 0.00 | 0.00 | 58 | 1016.1 |
| 20260502214532 | 48 | 153 | 7.0 | 14.8 | 0.00 | 0.00 | 0.00 | 56 | 1016.1 |
| 20260502213039 | 48 | 131 | 5.2 | 12.2 | 0.00 | 0.00 | 0.00 | 57 | 1016.2 |
| 20260502211535 | 48 | 92 | 3.5 | 13.0 | 0.00 | 0.00 | 0.00 | 56 | 1016.4 |
| 20260502210032 | 49 | 116 | 5.2 | 14.8 | 0.00 | 0.00 | 0.00 | 55 | 1016.5 |
| 20260502204530 | 50 | 169 | 7.8 | 13.0 | 0.00 | 0.00 | 0.00 | 52 | 1016.6 |
| 20260502203032 | 49 | 189 | 6.1 | 14.8 | 0.00 | 0.00 | 0.00 | 53 | 1016.8 |
| 20260502201534 | 50 | 157 | 6.1 | 14.8 | 0.00 | 0.00 | 0.00 | 50 | 1017.1 |
| 20260502200032 | 52 | 152 | 6.1 | 13.0 | 0.00 | 0.00 | 0.00 | 51 | 1017.1 |
| 20260502194533 | 54 | 165 | 3.5 | 13.9 | 0.00 | 0.00 | 0.00 | 49 | 1017.3 |
| 20260502193030 | 53 | 151 | 7.8 | 13.9 | 0.00 | 0.00 | 0.00 | 48 | 1017.3 |
| 20260502191530 | 52 | 140 | 7.0 | 15.6 | 0.00 | 0.00 | 0.00 | 48 | 1017.7 |
| 20260502190035 | 50 | 193 | 7.8 | 13.0 | 0.00 | 0.00 | 0.00 | 52 | 1017.8 |